Weather reports worldwide

Advertisment
Wittenberg, Germany (10474): temperature & dewpoint: 20.06.2019 17:00:00 - 26.06.2019 17:00:00 (CEST)Wittenberg, Germany (10474): temperature 5cm & temperature -5cm: 20.06.2019 17:00:00 - 26.06.2019 17:00:00 (CEST)Wittenberg, Germany (10474): temperature -20cm & temperature -100cm: 20.06.2019 17:00:00 - 26.06.2019 17:00:00 (CEST)Wittenberg, Germany (10474): wind speed & gusts: 20.06.2019 17:00:00 - 26.06.2019 17:00:00 (CEST)Wittenberg, Germany (10474): wind direction: 20.06.2019 17:00:00 - 26.06.2019 17:00:00 (CEST)Wittenberg, Germany (10474): reduced air pressure: 20.06.2019 17:00:00 - 26.06.2019 17:00:00 (CEST)Wittenberg, Germany (10474): visibility: 20.06.2019 17:00:00 - 26.06.2019 17:00:00 (CEST)Wittenberg, Germany (10474): sunshine duration: 20.06.2019 17:00:00 - 26.06.2019 17:00:00 (CEST)Wittenberg, Germany (10474): precipitation: 20.06.2019 17:00:00 - 26.06.2019 17:00:00 (CEST)
Date & Time tt [°C] td [°C] tt 5cm [°C] tt -5cm [°C] tt -20cm [°C] tt -100cm [°C] ff [km/h] ff [kn] fx [km/h] fx [kn] dd ppp [hPa] vv [km] sd [min] rr [mm]
26.06.2019 17:00:00 35,6 15,0 39,5 41,9 32,8 21,5 17 9 35 19 WNW 1018,8 52 60 0,0
26.06.2019 16:00:00 35,7 16,4 40,3 42,0 32,2 21,5 20 11 42 23 W 1019,1 39 55 0,0
26.06.2019 15:00:00 36,2 16,6 39,7 41,9 31,4 21,4 18 10 35 19 W 1019,2 54 57 0,0
26.06.2019 14:00:00 34,8 16,7 39,9 41,1 30,5 21,4 18 10 36 19 WNW 1019,4 55 50 0,0
26.06.2019 13:00:00 34,3 16,7 39,7 40,1 29,4 21,4 14 7 31 17 WNW 1019,7 41 57 0,0
26.06.2019 12:00:00 34,5 17,7 40,6 38,4 28,3 21,4 11 6 24 13 W 1019,9 54 60 0,0
26.06.2019 11:00:00 33,4 18,0 38,2 35,5 27,2 21,4 11 6 27 14 W 1019,9 48 60 0,0
26.06.2019 10:00:00 30,9 17,6 35,5 32,3 26,4 21,3 10 5 16 9 WSW 1019,9 30 60 0,0
26.06.2019 09:00:00 27,9 17,3 31,0 29,1 25,9 21,3 8 4 14 7 WSW 1019,9 21 60 0,0
26.06.2019 08:00:00 25,2 16,4 27,2 26,3 25,7 21,3 6 3 12 7 SW 1019,7 25 60 0,0
26.06.2019 07:00:00 22,7 16,6 23,8 24,0 25,9 21,2 4 2 9 5 W 1019,7 22 60 0,0
26.06.2019 06:00:00 20,1 16,3 20,0 22,9 26,4 21,2 4 2 7 4 WNW 1019,6 19 13 0,0
26.06.2019 05:00:00 20,2 16,4 17,8 23,3 26,9 21,2 0 0 10 6 N 1019,6 27 0 0,0
26.06.2019 04:00:00 22,1 16,6 19,9 24,2 27,4 21,1 6 4 10 5 E 1019,4 33 0 0,0
26.06.2019 03:00:00 23,6 16,4 21,0 25,0 27,9 21,1 7 4 13 7 E 1019,5 38 0 0,0
26.06.2019 02:00:00 24,9 16,2 23,0 25,8 28,4 21,0 9 5 13 7 E 1019,4 40 0 0,0
26.06.2019 01:00:00 25,6 15,5 23,7 26,4 29,0 21,0 7 4 12 6 E 1019,7 51 0 0,0
26.06.2019 00:00:00 26,2 14,9 23,7 27,3 29,7 21,0 8 5 11 6 E 1019,7 53 0 0,0
25.06.2019 23:00:00 27,0 14,8 23,7 28,5 30,4 21,0 7 4 10 5 E 1019,6 20 0 0,0
25.06.2019 22:00:00 28,1 14,6 24,1 30,2 31,1 21,0 7 4 10 5 E 1019,6 64 0 0,0
25.06.2019 21:00:00 30,6 14,2 27,8 32,9 31,7 20,9 5 3 15 8 SSE 1019,3 55 47 0,0
25.06.2019 20:00:00 32,2 12,4 32,4 35,5 31,9 20,9 11 6 21 11 S 1019,3 75 60 0,0
25.06.2019 19:00:00 33,1 10,0 34,4 37,5 31,9 20,9 14 8 24 13 SSE 1019,3 40 60 0,0
25.06.2019 18:00:00 33,6 4,8 36,0 39,0 31,7 20,9 16 8 27 15 SE 1019,4 75 60 0,0
25.06.2019 17:00:00 33,4 9,0 36,7 39,7 31,2 20,9 13 7 27 15 SE 1019,7 62 60 0,0
25.06.2019 16:00:00 32,9 9,2 37,6 38,8 30,6 20,9 11 6 26 14 SE 1020,2 60 43 0,0
25.06.2019 15:00:00 32,6 10,5 37,0 40,1 29,7 20,9 14 8 29 16 SSE 1020,6 56 60 0,0
25.06.2019 14:00:00 31,3 11,2 36,5 38,5 28,7 20,9 13 7 27 15 SE 1021,2 61 60 0,0
25.06.2019 13:00:00 30,8 13,2 36,4 37,0 27,6 20,9 15 8 34 18 SE 1021,6 65 60 0,0
25.06.2019 12:00:00 29,6 13,7 34,4 35,5 26,4 20,9 13 7 31 17 SSE 1021,7 43 60 0,0
25.06.2019 11:00:00 28,3 14,3 32,7 33,4 25,4 20,9 14 7 26 14 SSE 1021,9 44 60 0,0
25.06.2019 10:00:00 27,2 15,4 31,2 30,2 24,5 20,8 13 7 24 13 SE 1022,0 51 60 0,0
25.06.2019 09:00:00 25,2 15,0 28,0 27,0 24,0 20,8 14 8 26 14 ESE 1022,1 46 60 0,0
25.06.2019 08:00:00 23,1 14,2 25,1 24,2 23,8 20,8 9 5 23 12 SE 1022,4 64 60 0,0
25.06.2019 07:00:00 20,7 13,3 21,6 21,7 24,0 20,7 7 4 14 7 ESE 1022,4 49 60 0,0
25.06.2019 06:00:00 18,6 12,4 18,1 20,5 24,4 20,7 8 4 12 7 E 1022,2 53 20 0,0
25.06.2019 05:00:00 18,5 11,7 17,0 20,8 24,9 20,7 9 5 15 8 ENE 1022,0 59 0 0,0
25.06.2019 04:00:00 19,6 11,5 18,2 21,4 25,4 20,7 8 5 18 10 E 1022,2 52 0 0,0
25.06.2019 03:00:00 20,3 11,0 18,2 22,0 25,9 20,6 8 4 14 7 ESE 1022,4 58 0 0,0
25.06.2019 02:00:00 21,0 9,8 18,5 22,7 26,5 20,6 8 4 14 7 E 1022,4 64 0 0,0
25.06.2019 01:00:00 21,5 8,6 19,2 23,5 27,2 20,6 7 4 13 7 E 1022,4 66 0 0,0
25.06.2019 00:00:00 22,4 7,8 19,7 24,5 27,9 20,5 6 4 16 9 E 1022,4 66 0 0,0
24.06.2019 23:00:00 23,6 7,2 21,7 25,6 28,7 20,5 9 5 17 9 ENE 1022,2 66 0 0,0
24.06.2019 22:00:00 24,2 7,1 22,2 27,3 29,6 20,5 9 5 15 8 ENE 1022,0 74 0 0,0
24.06.2019 21:00:00 25,7 7,3 23,0 30,0 30,2 20,5 6 3 16 9 NE 1021,9 62 39 0,0
24.06.2019 20:00:00 28,1 5,7 27,9 33,1 30,6 20,5 8 5 23 13 E 1021,7 54 60 0,0
24.06.2019 19:00:00 28,3 4,7 28,9 34,9 30,8 20,5 8 4 22 12 E 1021,7 75 60 0,0
24.06.2019 18:00:00 29,1 3,6 31,6 36,7 30,6 20,5 10 6 26 14 E 1022,0 55 60 0,0
24.06.2019 17:00:00 29,4 3,0 32,9 38,0 30,2 20,5 10 6 26 14 ESE 1022,2 44 60 0,0
24.06.2019 16:00:00 29,1 4,7 33,0 38,6 29,4 20,5 16 9 30 16 ESE 1022,6 62 60 0,0
24.06.2019 15:00:00 28,2 5,6 33,1 38,3 28,5 20,5 13 7 30 16 ESE 1022,6 53 60 0,0
24.06.2019 14:00:00 27,5 6,0 31,8 37,5 27,4 20,5 13 7 30 16 NE 1023,2 52 60 0,0
24.06.2019 13:00:00 26,7 7,3 31,2 36,0 26,2 20,5 14 7 29 16 E 1023,5 75 60 0,0
24.06.2019 12:00:00 26,7 9,2 31,2 34,1 25,0 20,5 11 6 29 16 E 1023,8 64 60 0,0
24.06.2019 11:00:00 25,2 8,8 29,7 31,5 23,9 20,5 14 7 28 15 SE 1023,9 74 60 0,0
24.06.2019 10:00:00 24,2 10,0 28,0 28,5 23,0 20,5 14 7 21 12 SSE 1024,2 61 60 0,0
24.06.2019 09:00:00 22,7 9,9 25,6 25,4 22,5 20,4 8 5 15 8 SE 1024,7 47 60 0,0
24.06.2019 08:00:00 20,1 10,7 22,1 22,2 22,3 20,4 9 5 16 9 ESE 1024,4 60 60 0,0
24.06.2019 07:00:00 18,3 11,1 18,9 19,7 22,5 20,4 8 4 15 8 E 1024,1 54 60 0,0
24.06.2019 06:00:00 16,8 11,5 16,2 18,4 23,0 20,4 7 4 16 9 E 1023,8 48 22 0,0
24.06.2019 05:00:00 16,3 12,1 15,0 18,7 23,5 20,3 9 5 16 9 NE 1023,6 48 0 0,0
24.06.2019 04:00:00 17,1 12,2 16,0 19,5 24,0 20,3 10 5 20 11 NE 1023,5 55 0 0,0
24.06.2019 03:00:00 17,9 12,4 16,7 20,2 24,6 20,3 10 5 23 12 NE 1023,4 60 0 0,0
24.06.2019 02:00:00 18,9 12,6 17,8 21,0 25,2 20,3 12 7 30 16 NE 1023,0 59 0 0,0
24.06.2019 01:00:00 19,6 11,9 18,4 21,8 25,9 20,3 14 8 25 13 NE 1022,9 57 0 0,0
24.06.2019 00:00:00 20,1 9,9 18,7 22,8 26,7 20,2 14 7 22 12 NNE 1022,4 70 0 0,0
23.06.2019 23:00:00 20,9 9,1 19,4 24,1 27,5 20,2 11 6 18 10 NNE 1022,0 68 0 0,0
23.06.2019 22:00:00 21,4 9,9 19,5 26,0 28,3 20,2 10 5 15 8 NNE 1021,6 74 6 0,0
23.06.2019 21:00:00 24,7 9,1 23,3 28,6 29,0 20,2 8 4 18 10 NE 1020,7 70 60 0,0
23.06.2019 20:00:00 26,2 8,1 26,4 31,4 29,4 20,2 9 5 22 12 ENE 1020,4 73 60 0,0
23.06.2019 19:00:00 26,9 7,9 28,3 33,7 29,5 20,3 9 5 28 15 NE 1020,4 50 59 0,0
23.06.2019 18:00:00 27,2 7,5 30,0 35,5 29,2 20,3 12 7 28 15 E 1020,4 58 55 0,0
23.06.2019 17:00:00 27,6 7,9 31,6 37,0 28,6 20,3 9 5 23 12 E 1020,7 57 57 0,0
23.06.2019 16:00:00 26,9 7,9 31,5 36,9 27,7 20,3 16 9 31 17 ESE 1021,0 55 59 0,0
23.06.2019 15:00:00 27,1 8,3 31,6 34,4 27,0 20,3 11 6 32 18 E 1021,3 75 34 0,0
23.06.2019 14:00:00 25,8 7,7 28,4 35,5 26,0 20,3 13 7 31 17 NE 1021,4 67 49 0,0
23.06.2019 13:00:00 25,2 8,7 27,7 34,8 24,9 20,3 14 8 41 22 E 1021,6 72 56 0,0
23.06.2019 12:00:00 25,4 8,6 30,1 32,5 23,6 20,3 13 7 36 19 ENE 1021,7 64 59 0,0
23.06.2019 11:00:00 24,5 9,3 28,4 30,3 22,4 20,3 13 7 28 15 ENE 1022,0 53 60 0,0
23.06.2019 10:00:00 22,2 11,2 26,1 26,6 21,5 20,3 10 6 22 12 E 1022,0 64 60 0,0
23.06.2019 09:00:00 19,9 10,4 22,7 23,2 21,0 20,3 9 5 20 11 E 1022,1 75 60 0,0
23.06.2019 08:00:00 18,5 9,9 20,4 20,2 20,8 20,3 9 5 18 10 ENE 1021,9 72 60 0,0
23.06.2019 07:00:00 15,6 9,4 16,4 17,6 21,0 20,3 10 5 24 13 NE 1021,8 60 60 0,0
23.06.2019 06:00:00 14,4 9,5 14,2 16,5 21,5 20,2 11 6 23 12 NE 1021,6 61 22 0,0
23.06.2019 05:00:00 14,5 10,0 13,7 16,9 22,0 20,2 14 8 26 14 NE 1021,4 58 0 0,0
23.06.2019 04:00:00 15,1 10,8 14,3 17,6 22,6 20,2 14 8 26 14 NE 1021,3 56 0 0,0
23.06.2019 03:00:00 16,3 11,4 15,4 18,4 23,1 20,2 16 9 29 16 NE 1021,2 49 0 0,0
23.06.2019 02:00:00 17,4 11,5 16,4 19,3 23,7 20,2 16 9 30 16 NE 1020,9 54 0 0,0
23.06.2019 01:00:00 18,5 11,2 17,6 20,1 24,4 20,2 17 9 33 18 NE 1020,6 50 0 0,0
23.06.2019 00:00:00 19,6 10,8 18,5 21,1 25,1 20,2 17 9 29 15 NE 1020,3 59 0 0,0
22.06.2019 23:00:00 20,1 10,9 18,8 22,2 25,8 20,2 15 8 25 14 NE 1020,0 69 0 0,0
22.06.2019 22:00:00 20,9 10,7 19,6 23,8 26,6 20,2 11 6 21 11 NNE 1019,8 70 0 0,0
22.06.2019 21:00:00 22,5 10,6 21,3 25,9 27,3 20,2 11 6 22 12 NNE 1019,1 75 0 0,0
22.06.2019 20:00:00 24,2 10,3 23,9 28,5 27,7 20,2 13 7 27 15 NE 1019,0 74 49 0,0
22.06.2019 19:00:00 25,1 10,1 25,9 31,0 27,8 20,2 18 10 34 18 NE 1018,9 75 60 0,0
22.06.2019 18:00:00 25,9 10,6 28,9 33,3 27,5 20,2 17 9 31 17 NE 1019,3 51 58 0,0
22.06.2019 17:00:00 26,0 11,2 29,6 32,4 27,2 20,3 11 6 30 16 ENE 1019,7 66 22 0,0
22.06.2019 16:00:00 26,2 11,8 29,9 35,0 26,5 20,3 14 7 27 15 E 1019,9 51 50 0,0
22.06.2019 15:00:00 25,5 11,8 30,5 33,5 25,7 20,3 13 7 34 18 NE 1020,2 57 31 0,0
22.06.2019 14:00:00 24,9 12,5 29,8 33,9 24,7 20,3 11 6 30 16 NE 1020,8 51 40 0,0
22.06.2019 13:00:00 24,1 12,9 27,0 31,6 23,8 20,3 14 8 25 14 NNE 1021,6 47 27 0,0
22.06.2019 12:00:00 23,5 13,0 28,1 30,0 22,9 20,3 12 7 25 14 ENE 1021,8 62 32 0,0
22.06.2019 11:00:00 21,6 13,0 24,7 27,4 22,0 20,3 10 5 25 13 ENE 1022,1 60 32 0,0
22.06.2019 10:00:00 21,1 13,1 25,0 25,3 21,2 20,3 12 6 23 12 NE 1022,2 36 53 0,0
22.06.2019 09:00:00 19,1 13,1 22,0 22,7 20,6 20,3 14 7 29 16 NNE 1022,3 42 57 0,0
22.06.2019 08:00:00 16,5 12,6 18,3 19,1 20,5 20,3 12 7 22 12 NNE 1022,3 43 12 0,0
22.06.2019 07:00:00 15,2 12,2 15,5 17,6 20,7 20,3 13 7 19 10 NNE 1022,0 41 0 0,0
22.06.2019 06:00:00 15,3 11,8 15,3 17,1 21,0 20,3 9 5 17 9 NNE 1021,7 50 0 0,0
22.06.2019 05:00:00 15,2 11,4 14,7 16,9 21,4 20,3 12 6 19 10 N 1021,5 46 0 0,0
22.06.2019 04:00:00 15,2 10,2 14,3 16,8 21,9 20,3 10 5 16 9 N 1021,4 48 0 0,0
22.06.2019 03:00:00 15,4 10,0 14,0 17,5 22,5 20,3 11 6 16 9 N 1021,1 55 0 0,0
22.06.2019 02:00:00 15,7 10,7 14,0 18,3 23,2 20,3 9 5 14 8 N 1020,8 59 0 0,0
22.06.2019 01:00:00 16,5 11,4 15,0 19,4 23,8 20,3 9 5 11 6 N 1020,8 59 0 0,0
22.06.2019 00:00:00 17,9 11,7 16,0 20,8 24,4 20,3 4 2 11 6 N 1020,4 58 0 0,0
21.06.2019 23:00:00 18,2 11,9 17,8 21,5 25,1 20,3 8 4 11 6 N 1020,1 60 0 0,0
21.06.2019 22:00:00 18,9 11,3 17,6 22,4 25,9 20,3 9 5 12 6 N 1019,3 68 0 0,0
21.06.2019 21:00:00 21,3 10,7 20,2 24,5 26,6 20,3 10 5 19 11 NNW 1018,3 64 46 0,0
21.06.2019 20:00:00 23,2 10,5 24,3 27,3 27,0 20,3 10 6 18 10 NNW 1017,7 58 44 0,0
21.06.2019 19:00:00 23,2 10,3 25,2 28,8 27,2 20,4 11 6 22 12 N 1017,4 75 46 0,0
21.06.2019 18:00:00 24,7 8,8 27,5 31,5 26,9 20,4 11 6 22 12 WNW 1017,0 68 49 0,0
21.06.2019 17:00:00 25,0 9,5 28,6 32,1 26,3 20,4 12 7 22 12 W 1017,1 62 52 0,0
21.06.2019 16:00:00 24,6 7,5 29,7 32,3 25,5 20,4 10 6 21 11 W 1017,2 53 54 0,0
21.06.2019 15:00:00 23,3 9,6 25,7 30,4 24,6 20,4 14 8 26 14 WNW 1017,6 70 48 0,0
21.06.2019 14:00:00 24,2 11,3 27,9 29,9 23,7 20,4 11 6 25 13 WSW 1017,6 55 52 0,0
21.06.2019 13:00:00 22,2 13,0 26,2 27,8 22,9 20,4 11 6 23 12 WNW 1017,8 51 47 0,0
21.06.2019 12:00:00 20,8 12,4 24,9 26,5 22,2 20,4 9 5 21 11 WNW 1018,0 39 39 0,0
21.06.2019 11:00:00 19,6 13,3 25,0 24,8 21,6 20,4 10 5 19 10 NW 1017,7 33 25 0,0
21.06.2019 10:00:00 17,7 14,3 18,9 22,2 21,3 20,4 10 5 16 9 WNW 1017,7 24 4 0,0
21.06.2019 09:00:00 17,0 15,0 17,2 20,2 21,2 20,4 9 5 16 9 WNW 1017,1 15 0 0,0
21.06.2019 08:00:00 16,7 15,3 17,1 19,7 21,1 20,4 5 3 13 7 W 1016,5 10 0 0,0
21.06.2019 07:00:00 16,1 14,9 16,7 18,8 21,3 20,4 4 2 10 5 WSW 1015,8 12 12 0,0
21.06.2019 06:00:00 15,0 14,5 15,4 17,7 21,6 20,4 4 2 8 4 NW 1015,5 7 0 0,0
21.06.2019 05:00:00 14,7 14,2 14,3 17,4 22,1 20,4 5 3 8 4 WNW 1015,2 8 0 0,0
21.06.2019 04:00:00 15,1 14,5 14,5 18,0 22,6 20,4 4 2 6 3 SSW 1014,7 13 0 0,0
21.06.2019 03:00:00 15,5 14,8 14,4 18,6 23,2 20,3 2 1 9 5 S 1014,6 12 0 0,0
21.06.2019 02:00:00 15,7 15,0 15,3 19,3 23,9 20,3 3 2 6 3 WNW 1014,2 15 0 0,0
21.06.2019 01:00:00 16,3 15,6 15,8 20,0 24,6 20,3 0 0 10 6 N 1013,6 19 0 0,0
21.06.2019 00:00:00 16,6 15,4 16,5 21,0 25,5 20,3 8 5 36 20 NW 1013,4 36 0 1,1
20.06.2019 23:00:00 17,0 14,1 16,4 22,5 26,3 20,3 12 7 37 20 NNW 1013,3 46 0 3,9
20.06.2019 22:00:00 21,1 15,5 20,1 25,3 26,8 20,3 2 1 5 3 WSW 1012,2 54 0 0,0
20.06.2019 21:00:00 22,5 15,4 21,8 27,0 27,2 20,3 4 2 8 5 N 1011,6 68 17 0,0
20.06.2019 20:00:00 24,4 13,9 26,1 29,3 27,4 20,3 7 4 11 6 NW 1011,0 60 55 0,0
20.06.2019 19:00:00 24,4 14,3 26,9 30,2 27,4 20,3 7 4 18 10 NNW 1010,8 75 42 0,0
20.06.2019 18:00:00 24,4 15,1 28,8 32,0 27,1 20,3 10 5 22 12 NNW 1010,7 68 58 0,0
20.06.2019 17:00:00 24,3 15,5 29,9 31,5 26,7 20,3 14 8 22 12 NNW 1010,9 75 58 0,0

tt = temperature
td = dewpoint
tt 5cm = temperature 5cm
tt -5cm = temperature -5cm
tt -20cm = temperature -20cm
tt -100cm = temperature -100cm
ff = wind speed
fx = gusts
dd = wind direction
ppp = reduced air pressure
vv = visibility
sd = sunshine duration
rr = precipitation

Next stations